NIMBUS 2 DEB, 25825

Orbit data source: Space-Track

NIMBUS 2 DEB, 25825 is space debris in SSO originally from a launch on Sun, 15 May 1966 UTC launched from the Air Force Western Test Range (AFWTR). Debris objects in space refer to the collection of defunct objects orbiting the Earth. Examples of debris include non-operational satellites, rocket bodies, and fragments generated from explosions, collisions, or faulty payload assembly.

Loading next visibility...
Identifier
25825, 1966-040H
Orbit
SSO
Country
Flag of USUS
Related business
Manufacturer
Unknown
Mission
Spacecraft
Bus & Motor
Unknown
Mass
Unknown
Launch date (UTC)
1966-05-15 (59 years ago)
Launch vehicle
Unknown
Launch site
Air Force Western Test Range (AFWTR)
Object type
Payload
Rocket body
Debris
Shape & HBR
Unknown shape, 0.1 m
Radar Cross Section
Small (<0.1 m²)

Expand to show TLE details & history
Last TLE update: 2 days ago

TLE from 2 days ago
0 NIMBUS 2 DEB
1 25825U 66040H   25289.16316898  .00003573  00000-0  41870-2 0  9996
2 25825 100.3237 347.0110 0046465  69.6434 314.7123 13.68598365903886
Epoch: 2025-10-16T03:54Z
TLE epoch observation values (Epoch: 2025-10-16T03:54:57.799Z)
Latitude
23.58683°
Longitude
-101.19463°
Altitude
983.29 km
Speed
7.374 km/s
True Right ascension
22h 49m 53s
True Declination
23° 27' 53"
Sunlit
Object was in full shadow at epoch
Visualization orbit readout
Latitude
Unknown
Longitude
Unknown
Altitude
Unknown
Speed
Unknown
Apparent Right ascension
Unknown
Apparent Declination
Unknown
Sunlit
N/A
Visualization observer readout
Local Sidereal Time
19:59:34
Azimuth
Unknown
Elevation
Unknown
Doppler factor
Unknown
Orbital elements
Apogee altitude
1,036.209 km
Perigee altitude
967.626 km
Semi-major axis
7,380.054 km
Eccentricity
0.00465
Inclination
100.3237°
RAAN
347.011°
Arg. of periapsis
69.6434°
True anomaly
314.33237°
Mean anomaly
314.7123°
Eccentric anomaly
314.52249°
Mean motion
3.42337 °/min
Orbital period
105.16 mins
BSTAR
0.004187
Loading maneuver chart data...
Computing Atmospheric mass density...
Loading historical data...
Loading historical data...
Loading historical data...
Loading historical data...
Loading historical data...
Loading historical data...
Loading historical data...

Documentation

Showing up to 5 results
|